Regional Weather Roundup
Issued by NWS Lake Charles, LA

Home | Current Version | Previous Version | Text Only | Print | Product List | Glossary On
Versions: 1 2 3 4 5 6 7 8 9 10 11 12 13 14 15 16 17 18 19 20 21 22 23 24 25 26 27 28 29 30 31 32 33 34 35 36 37 38 39 40 41 42 43 44 45 46 47 48 49 50
000
ASUS44 KLCH 121710
RWRLCH
REGIONAL WEATHER ROUNDUP
NATIONAL WEATHER SERVICE LAKE CHARLES LA
1100 AM CST FRI FEB 12 2016

Note: "fair" indicates few or no clouds below 12,000 feet with no
significant weather and/or obstructions to visibility.


ACROSS SOUTHEAST TEXAS

CITY           SKY/WX    TMP DP  RH WIND       PRES   REMARKS
BEAUMONT       MOSUNNY   73  60  63 SW12      30.26S
BEAUMONT CITY  FAIR      73  58  59 W15G23    30.27S
ORANGE         PTSUNNY   70  57  63 W12G18    30.29S
JASPER         MOSUNNY   67  57  72 SW14      30.29R
$$

ACROSS CENTRAL LOUISIANA

CITY           SKY/WX    TMP DP  RH WIND       PRES   REMARKS
LEESVILLE      MOSUNNY   67  56  67 W14       30.26
FULLERTON      FAIR      70  56  61 VRB5      30.23F
ALEXANDRIA INT MOSUNNY   69  57  65 W15       30.24F
ESLER FIELD    MOSUNNY   71  55  56 W17       30.25S
DERIDDER         N/A     69  58  69 W16G22    30.29S
OAKDALE          N/A     65  59  81 W3        30.28S
OPELOUSAS      CLOUDY    62  59  91 W6        30.29S
$$

ACROSS SOUTHWEST AND SOUTH CENTRAL LOUISIANA

CITY           SKY/WX    TMP DP  RH WIND       PRES   REMARKS
SULPHUR        MOSUNNY   71  59  65 MISG      30.28S
LAKE CHARLES   MOSUNNY   70  60  70 W10G17    30.27S
CHENNAULT INT  MOSUNNY   66  59  77 SW14      30.27S
CAMERON PHI    SUNNY     66  61  82 W6        30.30S
DEQUINCY       CLOUDY    65  65  99 W9        30.28S
JENNINGS       CLOUDY    68  61  77 NW10G22   30.28S
LAFAYETTE      PTSUNNY   69  59  70 W14G20    30.28S
NEW IBERIA     MOSUNNY   69  57  65 W16       30.28F
ABBEVILLE      PTSUNNY   69  59  69 W15G21    30.29R
PATTERSON      CLOUDY    70  55  60 W16G22    30.30S
SALT POINT       N/A     61  58  90 SW5       30.28S
$$

SELECTED SITES ACROSS THE REGION

CITY           SKY/WX    TMP DP  RH WIND       PRES   REMARKS
HOUSTON BUSH   MOSUNNY   68  59  73 W10G16    30.26S
HOUSTON HOBBY  MOSUNNY   71  58  63 SW13G21   30.26S
GALVESTON      SUNNY     70  61  73 SW10G16   30.28R
COLLEGE STAT   SUNNY     66  57  72 S10       30.25R
CONROE         CLOUDY    66  57  72 W10G22    30.27R
HUNTSVILLE     CLOUDY    66  57  72 W10G17    30.26R
LUFKIN         MOSUNNY   68  54  60 W8        30.26R
SHREVEPORT     SUNNY     57  36  45 N5        30.29R
MONROE         SUNNY     57  38  48 W7        30.29R
NATCHEZ MS     PTSUNNY   66  55  68 W13       30.26F
BATON ROUGE    PTSUNNY   67  58  72 W9        30.28F
N.O. INTL ARPT CLOUDY    72  56  57 W20       30.27F
SLIDELL        MOSUNNY   66  59  78 MISG      30.27S
$$

MARINE REPORTS

STATION/POSITION TIME  SKY/WX   TEMP    WIND        PRES    VSBY
                                AIR SEA DIR/SP/G
                 (UTC)          (F)     (DEG/KT/KT) (MB)    (MI)
BUOY 30 S HIGH I 1650            62 60  230/  4/  4 1025.1R
WVE H/P(F/S)=  3/ 6

SEA RIM ST PARK  1700            65     220/  7/ 10 1025.5S
PORT ARTHUR      1600               56  230/ 11/ 13 1025.0R
SABINE PASS N    1600            67 57  240/  4/ 10 1026.3R
TEXAS POINT      NOT AVBL
CALCASIEU PASS   1600            62 59  250/  6/  9 1024.4R
LK CHARLES BEACH 1600            64 57              1025.4R
MARSH ISLAND     NOT AVBL
FRESH WATER LOCK 1600            66 59  220/ 10/ 13 1025.4R
AMERADA PASS     1600            65 51  230/  5/ 10 1025.8R
$$



USA.gov is the U.S. government's official web portal to all federal, state and local government web resources and services.